GFSFLT1_prec_cthk_000.txt.gz
RH
23 24 26 28 30 32 33 34 34 37 38 40 42 44 44 45 46 47 48 50 53 53 52 52 54 54 54 55 56 56 57 57
26 28 29 32 35 37 38 38 40 43 44 46 47 48 48 48 49 49 51 53 55 56 56 56 57 57 57 59 60 61 62 62
29 32 36 38 41 41 44 47 48 50 49 49 50 50 50 51 53 54 55 56 58 59 60 60 61 61 61 61 63 64 65 65
32 34 37 41 41 42 45 49 52 53 52 50 49 49 50 51 53 54 56 55 57 59 61 64 65 64 65 66 66 66 64 65
36 39 40 41 41 43 44 48 50 51 52 53 53 52 53 56 57 58 59 59 59 60 62 63 65 68 70 70 69 66 63 64
43 44 46 46 47 49 53 55 56 58 61 59 55 53 51 54 57 60 60 61 60 61 62 62 64 66 67 68 71 73 70 71
57 57 54 55 56 58 58 60 64 65 67 68 61 56 55 59 62 64 64 68 68 74 71 66 69 68 70 73 78 78 80 81
62 60 60 60 63 64 69 73 75 74 78 71 66 60 58 58 60 60 63 68 70 80 72 73 75 74 79 84 85 80 86 86
60 60 64 68 70 71 73 74 72 69 66 65 61 58 58 58 57 55 54 64 67 72 73 71 75 84 85 92 86 96 98 90
60 65 68 68 68 74 76 71 66 61 56 55 55 55 55 55 52 50 48 52 60 67 77 88 89 97 98 95 94 92 90 86
64 64 67 68 67 69 69 71 66 61 58 57 54 54 52 52 49 50 55 60 67 75 86 94 98 96 94 92 88 85 81 77
65 66 69 72 71 68 66 62 61 57 55 54 52 51 50 49 51 58 64 68 75 84 85 86 89 88 85 84 81 77 74 70
70 70 71 68 63 62 61 59 57 55 52 50 50 50 51 55 59 64 70 73 76 80 82 85 79 75 72 69 66 60 53 47
69 68 66 63 60 59 56 55 54 52 51 50 49 52 53 56 60 69 73 76 79 85 82 77 74 69 63 54 47 42 38 34
69 68 66 65 64 61 55 54 55 52 49 50 50 52 58 59 66 71 78 84 90 86 80 77 69 57 47 40 34 27 24 26
72 69 70 70 62 58 54 54 53 50 51 52 53 58 65 69 74 77 87 95 88 83 79 69 59 50 36 25 25 28 29 32
78 75 67 64 59 55 53 57 53 50 56 62 66 71 79 84 89 95 93 92 89 87 73 56 42 30 25 27 31 33 35 36
70 66 66 62 55 57 58 52 51 52 59 68 75 84 88 92 91 90 91 89 86 72 54 41 29 26 29 32 36 36 36 37
64 70 64 62 64 60 54 54 55 59 61 68 81 87 92 91 89 86 88 85 67 51 40 31 28 28 29 32 34 36 40 50

GFSFLT1_prec_cthk_003.txt.gz
RH
29 31 32 36 39 42 44 44 45 46 46 47 47 47 45 45 46 46 47 48 49 50 52 52 52 53 54 54 55 55 56 56
31 31 34 39 41 43 44 45 48 50 50 49 47 49 48 46 45 46 49 51 52 52 52 53 54 53 54 55 57 59 59 59
32 35 39 43 44 44 45 49 52 55 54 51 52 52 51 50 50 50 51 53 54 55 56 56 56 56 55 56 56 58 60 59
39 42 43 45 47 50 52 53 53 54 55 58 58 56 55 52 51 48 50 52 52 53 56 57 59 60 59 58 56 53 55 56
40 43 45 49 52 51 51 53 56 55 56 56 56 56 55 54 52 49 49 54 56 57 56 57 60 63 68 68 66 61 62 60
44 46 51 55 52 55 57 59 60 60 62 62 61 59 54 49 47 45 46 49 53 55 58 58 63 67 68 78 75 69 69 67
52 56 60 58 59 60 61 63 62 62 64 62 59 57 52 48 47 48 49 50 51 54 59 61 63 69 72 83 78 69 70 74
57 59 61 64 65 62 62 61 61 59 58 56 58 56 53 52 52 52 50 48 47 45 47 53 66 66 74 80 77 77 81 84
63 66 64 67 65 62 61 61 60 57 55 53 53 54 54 53 51 48 45 42 42 43 47 56 65 68 78 70 74 84 91 92
67 67 66 67 63 61 58 56 54 52 51 51 51 50 48 45 46 45 42 42 44 49 55 61 66 71 77 87 97 96 98 96
66 66 70 67 64 61 60 60 60 58 57 53 47 44 39 39 42 44 47 51 55 60 65 69 78 86 86 89 89 88 88 88
70 72 74 71 69 65 61 61 61 57 53 51 43 38 36 38 43 46 52 56 61 66 71 75 79 76 75 79 75 72 71 70
72 75 77 74 72 69 62 60 57 54 51 50 46 41 37 40 41 44 53 63 73 78 75 74 76 79 78 72 67 63 58 53
66 69 70 71 73 76 68 64 57 56 54 52 44 39 38 42 50 55 60 72 81 84 86 87 87 82 75 69 62 55 48 47
72 76 71 72 72 70 63 53 54 55 52 49 47 47 50 58 65 68 72 81 89 92 93 89 83 76 67 61 54 46 40 34
70 77 72 66 67 63 57 55 55 52 51 52 56 63 59 67 71 74 83 91 96 94 90 87 81 72 60 51 46 40 36 30
70 69 66 67 65 67 70 65 59 53 50 52 59 66 74 81 86 89 97 95 96 96 92 86 77 62 53 48 41 34 28 25
75 72 68 64 65 74 71 63 60 56 58 66 74 83 75 86 91 96 95 94 93 91 86 77 58 51 45 38 32 27 24 24
73 68 71 75 80 76 68 67 69 74 72 78 81 80 76 87 95 92 89 87 84 76 64 56 49 42 36 31 27 24 23 28

GFSFLT1_prec_cthk_006.txt.gz
RH
30 31 34 35 40 45 48 49 48 48 50 50 49 50 50 49 48 46 45 45 46 45 45 46 48 48 48 48 49 50 51 52
31 33 35 37 43 49 51 50 51 52 54 54 53 53 50 50 50 48 49 48 48 49 48 47 49 50 52 51 50 51 52 53
32 34 37 43 48 53 54 53 58 56 55 55 56 56 56 55 56 53 49 48 46 47 49 49 49 50 52 52 54 55 55 56
36 39 44 47 52 56 58 57 56 54 56 59 58 57 57 57 58 56 53 48 46 46 48 50 51 52 51 52 53 54 55 55
42 46 49 51 53 55 56 56 55 55 55 55 54 54 55 55 55 53 51 48 46 47 49 51 55 57 55 55 55 61 60 61
47 50 52 53 53 55 57 58 57 55 56 57 56 56 56 54 51 46 46 46 48 47 48 48 47 50 52 55 60 63 64 65
52 55 58 59 59 61 61 61 60 59 59 61 62 59 53 49 47 44 42 39 37 36 36 38 39 43 46 54 61 63 67 67
54 57 60 64 63 65 67 67 65 63 63 62 59 58 57 52 46 40 36 35 33 31 29 29 32 37 43 50 59 65 65 77
62 66 68 66 67 68 70 71 72 69 63 58 56 55 53 49 42 40 38 38 35 30 31 34 38 43 49 57 65 71 78 91
66 69 68 70 72 73 71 69 68 68 64 63 61 58 50 48 48 44 41 43 43 44 46 50 56 57 61 71 80 89 89 98
67 69 70 69 69 67 69 69 65 63 63 60 53 55 55 48 43 40 44 47 48 53 57 58 65 69 71 75 82 81 79 86
68 68 68 70 71 71 70 68 63 54 55 56 60 60 50 42 39 39 41 45 47 52 59 66 76 77 78 75 75 79 80 75
68 70 71 75 70 67 64 60 59 55 57 63 66 61 53 50 44 43 44 51 57 61 73 85 82 81 82 84 82 79 75 70
67 68 70 74 73 70 69 64 60 65 70 65 59 55 56 57 48 48 52 60 69 79 85 91 94 92 91 88 83 76 66 59
59 63 69 71 70 67 65 63 68 70 65 58 57 58 58 54 56 54 62 72 83 88 96 98 97 95 90 84 74 65 59 55
65 68 69 69 69 65 66 67 63 65 62 64 62 64 66 63 63 64 71 85 95 98 98 98 97 94 91 82 68 60 57 52
74 72 70 71 69 63 63 64 74 67 62 67 69 64 63 68 72 81 90 97 97 96 93 91 90 85 76 69 64 59 51 43
77 76 68 64 66 67 70 67 61 62 61 60 69 69 67 71 78 84 92 92 89 88 85 79 72 68 64 60 54 46 38 32
77 68 71 72 76 70 64 64 62 60 57 63 71 75 68 75 82 82 77 73 69 68 65 63 60 55 53 48 42 34 29 26

GFSFLT1_prec_cthk_009.txt.gz
RH
32 30 32 36 39 44 49 50 49 50 49 51 52 51 52 52 51 52 52 51 50 47 43 41 44 46 46 46 46 46 45 44
30 32 34 35 39 44 49 51 52 52 54 52 53 53 53 52 51 51 52 51 50 48 44 41 41 42 45 47 47 48 47 50
32 34 37 42 46 49 51 54 56 55 58 57 55 53 53 53 53 52 51 49 46 43 41 40 41 42 45 48 51 50 50 50
36 39 44 49 52 55 57 57 56 56 56 57 57 56 56 58 58 56 52 50 47 45 44 44 44 43 43 46 49 51 53 53
43 46 51 53 56 58 60 61 60 60 62 63 62 59 57 56 54 52 48 48 48 46 41 37 37 36 36 39 43 45 53 57
49 52 54 55 57 60 60 64 65 68 69 68 67 66 63 60 56 50 49 47 43 37 34 33 31 30 28 28 30 32 39 49
53 55 57 58 61 64 67 69 70 70 70 69 66 65 64 60 60 56 53 46 41 41 38 33 29 28 29 31 33 37 40 43
56 59 60 64 67 68 71 71 68 66 69 70 70 65 61 57 55 50 47 44 45 42 40 38 34 29 27 30 36 41 48 56
63 65 68 69 70 71 70 68 67 68 67 66 67 65 61 56 54 53 53 48 44 45 47 48 45 42 45 45 49 54 60 67
65 65 66 68 70 71 72 74 73 68 64 59 53 54 55 54 58 55 48 46 46 50 53 55 60 58 63 68 69 75 76 81
59 62 64 67 71 71 69 69 68 65 63 60 60 61 60 63 51 49 50 50 53 55 62 63 66 71 74 78 78 83 77 76
61 63 64 63 64 65 66 68 71 68 64 64 67 65 62 55 51 49 48 49 59 61 66 71 78 81 86 85 84 86 87 83
61 60 60 63 65 65 66 67 66 64 62 63 60 59 56 53 48 48 55 59 60 64 71 75 84 88 91 93 94 92 90 86
62 63 66 69 69 70 66 64 62 63 62 59 58 56 54 54 58 60 61 65 67 70 77 84 92 96 96 95 92 91 89 82
67 68 68 68 68 65 59 56 54 52 51 48 55 61 64 67 67 69 69 76 78 82 88 93 95 94 94 92 89 85 79 69
70 72 71 67 61 55 53 56 59 59 61 64 66 68 72 71 69 71 75 83 85 91 92 92 92 89 85 83 78 71 68 65
76 73 71 64 59 58 60 64 58 57 65 64 65 68 62 58 61 64 73 80 81 78 76 74 72 70 68 66 64 63 60 58
84 78 64 62 70 66 63 51 50 52 53 55 49 52 55 60 64 64 62 58 56 56 57 57 56 55 53 52 52 51 50 47
77 70 71 75 65 56 46 46 51 52 43 49 56 62 63 66 63 59 55 54 54 51 44 39 37 39 41 41 41 40 41 39

GFSFLT1_prec_cthk_012.txt.gz
RH
35 38 36 36 38 41 51 57 54 52 54 55 55 53 55 57 55 53 52 51 49 48 46 44 44 45 43 43 43 44 46 45
37 34 34 36 38 46 54 55 54 56 59 60 58 59 60 61 60 57 55 54 52 50 49 48 47 46 45 43 44 44 45 49
35 38 40 42 43 47 52 56 58 61 62 63 64 63 64 65 66 65 63 61 58 55 50 47 46 43 42 43 44 43 43 47
40 42 44 47 50 55 59 61 63 64 65 66 66 67 67 67 66 65 64 62 59 53 51 46 40 38 37 36 36 36 40 39
44 48 50 53 57 60 63 62 62 63 64 66 65 66 66 65 65 66 63 62 57 52 44 37 35 38 39 39 38 41 42 39
49 53 57 58 59 60 60 61 63 65 67 69 69 67 66 67 66 65 62 59 55 48 47 41 40 40 39 36 37 41 43 46
53 54 55 57 60 61 63 67 70 70 71 68 68 71 69 67 65 58 53 52 46 49 49 43 42 41 44 43 40 40 41 46
55 60 63 64 65 66 67 69 72 74 76 76 71 66 62 58 55 52 49 47 51 48 45 47 42 40 39 43 39 40 45 46
65 66 66 64 64 65 66 69 71 68 64 61 60 57 57 54 53 52 53 51 48 47 42 41 45 49 53 55 62 59 61 61
60 58 59 62 65 68 67 63 63 64 64 62 60 57 56 55 52 53 53 49 46 43 46 55 56 60 66 67 66 69 73 74
60 62 67 68 65 62 62 63 65 67 66 64 59 57 55 55 51 48 45 47 50 53 60 68 76 75 76 76 82 84 87 88
63 63 62 63 64 67 68 70 69 67 63 61 56 52 47 44 44 49 54 57 57 65 71 77 76 79 83 87 87 94 97 96
66 67 67 71 72 73 74 73 67 64 57 56 52 51 48 47 52 56 63 60 60 62 65 71 78 85 89 92 97 98 96 95
70 71 73 74 77 76 70 64 61 60 62 59 53 50 53 51 52 51 51 57 63 69 74 81 89 95 98 98 98 97 96 94
74 76 76 75 70 67 67 66 69 65 57 52 50 46 47 47 50 53 58 64 74 80 88 94 92 88 90 92 92 92 89 85
76 75 74 67 65 71 74 71 62 56 53 47 41 37 44 50 53 58 62 64 66 68 67 65 63 63 65 61 65 67 71 70
75 70 65 67 71 72 65 62 55 44 42 39 39 44 50 56 61 62 60 62 63 59 58 57 54 52 44 40 39 43 45 49
64 64 65 70 73 67 60 55 43 38 37 39 45 51 58 61 65 63 64 65 59 48 39 38 39 39 35 35 35 35 39 41
69 71 69 63 62 61 54 43 35 36 41 48 52 56 61 68 68 72 67 52 39 38 38 37 39 46 44 44 43 45 47 49

GFSFLT1_prec_cthk_015.txt.gz
RH
45 38 38 38 40 45 52 59 62 61 60 60 62 63 64 65 67 67 67 65 63 61 61 60 59 57 55 53 51 48 47 45
39 37 36 37 41 49 56 56 60 60 62 64 65 67 70 70 72 69 67 65 63 61 60 59 57 54 50 48 43 43 44 46
37 37 37 40 46 49 52 56 58 62 65 67 68 67 70 71 71 70 68 64 65 63 63 62 56 52 48 43 41 38 39 42
39 40 42 47 51 54 57 61 63 64 64 68 69 70 71 72 70 70 71 68 64 61 59 55 51 48 43 43 43 43 42 40
44 47 52 54 56 59 62 61 60 62 64 67 68 68 71 77 75 73 69 62 57 55 52 50 48 47 47 49 50 48 50 46
48 51 55 58 59 60 60 63 66 66 67 67 70 74 77 77 70 59 57 56 55 52 47 45 43 44 46 45 47 52 51 49
50 55 60 61 61 64 64 66 67 69 69 69 66 63 60 59 60 60 58 52 43 42 43 46 48 55 56 56 50 45 43 44
57 61 65 65 68 64 62 64 69 71 67 62 62 62 63 63 61 56 48 44 44 45 47 52 57 56 57 54 50 50 47 51
60 62 65 64 62 63 64 67 65 66 67 68 67 67 65 60 54 52 50 48 47 48 48 50 50 54 64 63 63 66 68 64
62 64 65 62 63 64 63 62 62 63 67 70 70 68 66 63 57 55 47 44 46 49 42 45 52 51 52 56 65 72 69 68
64 64 64 65 65 65 66 69 72 74 72 72 72 71 68 58 50 50 49 44 45 44 45 50 51 55 60 65 69 74 79 84
67 66 66 67 70 71 70 70 69 69 69 68 65 64 59 57 54 53 47 46 41 48 51 59 60 62 69 77 83 90 92 95
70 69 72 74 74 71 69 68 65 69 69 62 57 55 59 61 53 49 47 42 51 59 62 65 75 79 84 94 96 95 97 98
71 72 75 75 74 68 64 64 65 63 56 53 56 60 56 46 47 45 46 49 52 59 67 77 85 89 87 81 84 86 89 93
72 73 73 72 67 62 63 66 60 58 60 58 53 48 45 44 48 51 53 55 61 64 66 66 69 69 66 64 62 57 60 64
73 70 65 62 61 64 68 63 59 56 53 47 45 44 43 51 53 53 55 60 63 66 68 64 55 47 50 38 35 32 32 37
72 66 64 62 65 68 70 59 54 48 47 50 50 47 50 54 54 56 57 64 68 66 53 48 49 47 44 37 36 38 40 41
72 69 67 66 64 62 62 58 58 56 56 55 54 54 56 55 59 60 68 71 64 51 52 50 48 47 49 47 48 48 48 49
70 63 57 53 50 52 60 60 61 60 62 66 63 56 57 60 65 68 77 69 57 53 51 49 52 57 59 52 51 53 57 64

GFSFLT1_prec_cthk_021.txt.gz
RH
44 45 45 47 51 47 47 54 63 60 58 60 63 63 66 68 66 64 64 65 63 64 63 66 63 56 52 46 43 42 40 36
44 47 48 52 60 55 48 45 51 54 57 62 64 68 69 68 67 66 63 67 67 63 62 57 52 48 46 44 40 36 34 33
45 49 51 54 55 53 54 55 57 56 59 62 63 62 61 61 62 64 67 67 66 65 57 53 50 48 47 42 41 39 35 37
44 46 49 51 51 53 52 55 58 60 61 62 61 57 57 60 64 68 68 66 61 57 56 53 53 51 46 46 46 43 44 47
44 50 50 51 52 54 54 55 60 63 64 61 58 57 59 62 63 61 58 58 58 59 57 55 49 44 42 42 46 48 50 51
44 45 46 49 51 54 57 62 64 61 56 55 54 55 55 55 55 57 59 58 56 52 46 42 41 43 45 44 47 50 55 56
47 45 46 49 52 57 62 61 61 62 62 61 61 59 58 57 57 56 52 49 45 43 42 41 38 36 35 34 37 40 38 48
54 53 54 58 59 57 57 57 58 60 61 61 60 60 59 58 55 52 48 41 40 37 32 28 28 28 31 33 38 41 46 47
62 56 54 58 62 64 64 64 60 60 59 56 55 54 52 51 52 50 43 35 34 36 33 30 34 37 40 44 46 46 47 49
58 62 61 63 63 62 64 63 62 60 60 59 59 57 53 52 46 36 33 37 39 36 28 28 36 41 44 46 47 50 58 63
67 70 71 69 66 66 64 63 62 63 63 62 61 55 49 39 34 35 37 40 40 28 28 33 38 43 47 53 59 62 67 75
70 70 68 65 64 61 59 61 59 58 57 58 53 43 36 34 34 33 35 35 27 30 34 36 42 46 50 56 60 59 58 58
72 68 65 62 62 59 59 58 58 58 55 50 41 43 45 46 40 34 38 38 34 32 35 41 47 51 56 56 52 48 44 48
65 65 64 61 57 53 53 53 52 48 42 41 46 54 60 56 51 50 57 66 48 42 39 43 52 55 53 51 50 45 47 49
65 69 67 59 55 53 52 49 47 42 44 48 50 54 61 56 64 65 83 80 66 63 54 51 64 52 48 46 45 47 48 46
66 65 60 54 54 54 49 43 42 41 43 47 49 46 57 61 68 83 80 86 80 74 67 64 73 54 45 46 47 51 51 51
63 56 54 54 52 49 45 45 42 43 46 47 43 48 60 64 71 90 95 96 89 80 70 76 69 49 52 55 56 55 55 58
56 55 56 53 47 45 45 45 45 46 48 44 40 44 53 60 67 87 84 97 85 72 79 84 61 54 62 61 57 55 65 74
56 54 49 47 45 44 43 43 43 44 39 29 30 36 44 51 57 87 97 97 89 74 88 72 57 63 60 55 56 70 81 89